Total_Precipitation_Accumulation
0.12 0.21 0.24 0.24 0.22 0.18 0.14 0.12 0.21 0.25 0.36 0.43 0.43 0.55 0.68 0.80 0.79 0.78 0.64 0.53 0.53 0.51 0.56 0.63 0.63 0.70 0.66 0.61 0.59 0.68 0.86 0.98 1.08 1.06 0.99 0.95 0.95 0.93 0.90 0.99 1.01 1.07 1.15 1.15
0.16 0.19 0.24 0.27 0.25 0.18 0.13 0.11 0.16 0.24 0.37 0.47 0.54 0.62 0.66 0.61 0.54 0.52 0.47 0.35 0.34 0.44 0.51 0.50 0.48 0.50 0.44 0.45 0.52 0.63 0.74 0.84 0.97 1.06 1.04 0.97 0.93 0.95 0.93 1.01 1.06 1.10 1.12 1.18
0.24 0.23 0.24 0.34 0.33 0.24 0.15 0.14 0.20 0.32 0.47 0.61 0.52 0.51 0.57 0.53 0.51 0.51 0.46 0.30 0.25 0.30 0.38 0.41 0.43 0.39 0.40 0.48 0.58 0.68 0.79 0.87 0.99 1.09 1.13 1.09 1.01 1.04 1.05 1.12 1.19 1.17 1.15 1.15
0.30 0.41 0.50 0.37 0.30 0.29 0.28 0.26 0.27 0.39 0.41 0.52 0.52 0.58 0.66 0.63 0.58 0.46 0.40 0.31 0.24 0.24 0.27 0.34 0.41 0.45 0.51 0.61 0.73 0.79 0.86 0.95 1.09 1.19 1.19 1.17 1.19 1.24 1.29 1.35 1.38 1.36 1.30 1.23
0.45 0.58 0.50 0.44 0.32 0.36 0.40 0.53 0.54 0.61 0.55 0.51 0.51 0.58 0.64 0.55 0.48 0.45 0.38 0.34 0.31 0.28 0.34 0.42 0.46 0.49 0.64 0.79 0.93 0.99 0.98 1.03 1.15 1.27 1.32 1.35 1.40 1.45 1.50 1.55 1.49 1.44 1.42 1.42
0.57 0.71 0.70 0.60 0.47 0.46 0.57 0.98 0.81 0.74 0.70 0.60 0.58 0.68 0.69 0.61 0.54 0.49 0.42 0.40 0.39 0.38 0.46 0.55 0.61 0.66 0.78 0.87 0.96 1.08 1.16 1.28 1.44 1.60 1.64 1.67 1.77 1.85 1.78 1.70 1.58 1.58 1.55 1.53
0.72 0.77 0.82 0.72 0.66 0.67 1.04 1.29 0.98 0.83 0.79 0.76 0.84 0.84 0.78 0.68 0.63 0.57 0.49 0.48 0.44 0.44 0.52 0.66 0.76 0.85 0.97 1.10 1.19 1.16 1.24 1.41 1.62 1.77 1.85 1.91 2.03 2.07 2.02 2.00 1.96 1.88 1.76 1.71
0.85 1.01 1.15 0.81 0.78 1.14 1.36 1.16 1.16 1.13 1.05 0.93 0.87 0.83 0.76 0.68 0.65 0.59 0.55 0.57 0.55 0.54 0.66 0.81 0.94 0.99 1.09 1.15 1.18 1.21 1.27 1.41 1.54 1.68 1.72 1.79 2.01 2.11 2.17 2.18 2.12 2.03 1.97 1.82
1.06 1.18 1.10 0.88 0.94 1.13 1.25 1.38 1.31 1.22 1.21 1.05 0.97 0.88 0.76 0.67 0.62 0.58 0.54 0.56 0.57 0.61 0.79 0.96 1.10 1.18 1.24 1.18 1.24 1.30 1.36 1.49 1.61 1.69 1.77 1.86 1.91 1.91 1.97 2.04 2.03 1.95 1.95 1.87
1.18 1.25 1.17 1.00 0.86 0.83 0.98 1.09 1.05 1.02 1.03 1.01 0.98 0.90 0.79 0.66 0.55 0.52 0.50 0.45 0.49 0.59 0.70 0.81 0.91 1.01 1.15 1.24 1.32 1.39 1.46 1.51 1.58 1.69 1.72 1.75 1.87 1.95 2.01 2.10 2.19 2.10 1.99 1.90
1.39 1.28 1.11 1.17 1.09 0.98 1.03 1.11 1.03 0.94 0.89 0.90 0.88 0.84 0.70 0.62 0.55 0.49 0.47 0.45 0.49 0.59 0.65 0.72 0.77 0.85 0.95 1.04 1.17 1.27 1.34 1.40 1.45 1.49 1.57 1.65 1.70 1.79 1.80 1.86 1.84 1.81 1.77 1.75
1.58 1.40 1.27 1.26 1.13 1.01 1.08 1.05 1.06 1.07 1.05 0.86 0.77 0.79 0.73 0.65 0.55 0.52 0.52 0.52 0.56 0.59 0.61 0.65 0.70 0.83 0.93 1.02 1.16 1.30 1.39 1.41 1.37 1.35 1.40 1.46 1.50 1.49 1.46 1.38 1.35 1.31 1.31 1.32
1.25 1.11 1.12 1.13 1.08 0.96 0.97 0.92 0.88 0.90 0.90 0.82 0.76 0.71 0.70 0.65 0.59 0.54 0.49 0.49 0.53 0.59 0.60 0.62 0.67 0.77 0.85 0.95 1.07 1.18 1.25 1.27 1.26 1.27 1.33 1.34 1.36 1.39 1.43 1.35 1.24 1.16 1.14 1.11
1.03 0.98 0.95 0.93 0.90 0.89 0.86 0.79 0.70 0.66 0.67 0.66 0.66 0.66 0.64 0.62 0.59 0.59 0.58 0.54 0.51 0.51 0.53 0.57 0.65 0.71 0.79 0.89 0.97 1.03 1.08 1.13 1.17 1.21 1.26 1.33 1.37 1.43 1.54 1.62 1.56 1.38 1.19 1.09
1.04 0.95 0.86 0.72 0.70 0.73 0.72 0.63 0.54 0.54 0.60 0.63 0.55 0.50 0.49 0.44 0.43 0.46 0.47 0.47 0.48 0.49 0.56 0.61 0.67 0.71 0.79 0.92 0.99 0.99 0.99 1.00 1.00 1.06 1.12 1.18 1.20 1.26 1.36 1.46 1.49 1.39 1.25 1.12
1.11 0.98 0.80 0.66 0.69 0.74 0.69 0.65 0.56 0.49 0.49 0.54 0.54 0.46 0.39 0.36 0.38 0.39 0.39 0.42 0.51 0.57 0.64 0.71 0.76 0.76 0.82 0.91 0.99 1.01 0.96 0.93 0.91 0.93 0.94 0.94 0.97 1.04 1.14 1.24 1.30 1.23 1.13 1.02
1.10 1.04 0.88 0.74 0.69 0.69 0.66 0.62 0.53 0.47 0.41 0.41 0.42 0.38 0.35 0.35 0.36 0.38 0.40 0.42 0.48 0.53 0.60 0.70 0.74 0.76 0.85 0.93 0.96 0.97 0.93 0.87 0.84 0.84 0.83 0.83 0.87 0.93 0.97 1.00 1.05 1.00 0.92 0.80
0.96 0.90 0.82 0.76 0.68 0.65 0.65 0.58 0.52 0.48 0.46 0.43 0.38 0.36 0.37 0.42 0.51 0.54 0.53 0.53 0.53 0.52 0.53 0.58 0.64 0.71 0.83 0.95 0.97 0.94 0.85 0.76 0.69 0.68 0.71 0.74 0.76 0.83 0.88 0.89 0.86 0.82 0.76 0.61
0.82 0.76 0.75 0.75 0.75 0.73 0.68 0.62 0.57 0.51 0.46 0.43 0.42 0.42 0.46 0.52 0.60 0.64 0.61 0.65 0.74 0.78 0.68 0.60 0.63 0.63 0.71 0.86 0.97 0.98 0.87 0.74 0.64 0.60 0.61 0.62 0.66 0.75 0.81 0.79 0.72 0.66 0.61 0.57
0.84 0.85 0.89 0.89 0.85 0.82 0.74 0.67 0.62 0.57 0.48 0.43 0.43 0.46 0.51 0.57 0.64 0.70 0.70 0.69 0.73 0.83 0.83 0.75 0.65 0.58 0.60 0.74 0.93 0.91 0.83 0.73 0.64 0.55 0.55 0.61 0.63 0.69 0.73 0.73 0.67 0.62 0.59 0.57
0.89 0.97 0.99 0.91 0.84 0.75 0.68 0.63 0.61 0.60 0.54 0.51 0.53 0.58 0.64 0.66 0.64 0.73 0.82 0.76 0.65 0.72 0.80 0.78 0.68 0.58 0.57 0.68 0.85 0.89 0.81 0.73 0.63 0.53 0.51 0.55 0.59 0.64 0.68 0.69 0.65 0.60 0.59 0.60
0.99 1.06 1.00 0.85 0.77 0.70 0.61 0.55 0.53 0.52 0.51 0.54 0.59 0.67 0.81 0.87 0.81 0.77 0.71 0.70 0.69 0.78 0.83 0.76 0.67 0.57 0.51 0.57 0.67 0.77 0.74 0.68 0.61 0.53 0.47 0.48 0.54 0.62 0.63 0.63 0.61 0.57 0.57 0.59
0.89 0.89 0.83 0.70 0.61 0.52 0.44 0.42 0.42 0.42 0.44 0.52 0.63 0.78 1.00 1.02 0.96 0.98 0.83 0.64 0.65 0.75 0.76 0.71 0.63 0.53 0.47 0.47 0.55 0.62 0.64 0.62 0.58 0.49 0.41 0.42 0.46 0.50 0.53 0.50 0.52 0.53 0.50 0.45
0.64 0.61 0.54 0.48 0.45 0.43 0.44 0.42 0.40 0.39 0.42 0.50 0.57 0.71 0.98 1.14 0.98 0.77 0.71 0.68 0.67 0.66 0.63 0.62 0.55 0.47 0.44 0.43 0.45 0.52 0.57 0.59 0.55 0.49 0.42 0.43 0.43 0.44 0.48 0.47 0.46 0.43 0.38 0.38
0.55 0.48 0.42 0.42 0.45 0.50 0.52 0.52 0.50 0.49 0.54 0.59 0.59 0.62 0.78 1.00 1.02 0.77 0.62 0.57 0.59 0.57 0.55 0.57 0.58 0.55 0.47 0.40 0.39 0.47 0.53 0.55 0.55 0.51 0.46 0.47 0.44 0.46 0.47 0.44 0.43 0.41 0.40 0.41
0.52 0.46 0.44 0.43 0.44 0.51 0.59 0.67 0.77 0.79 0.86 0.96 0.90 0.80 0.84 0.88 0.82 0.72 0.60 0.52 0.50 0.52 0.50 0.53 0.59 0.61 0.52 0.44 0.44 0.48 0.51 0.56 0.56 0.53 0.51 0.49 0.45 0.43 0.44 0.44 0.43 0.43 0.40 0.37
0.54 0.48 0.49 0.50 0.49 0.53 0.65 0.81 0.96 1.04 1.15 1.32 1.34 1.10 1.00 0.98 0.88 0.77 0.68 0.61 0.58 0.56 0.54 0.52 0.52 0.53 0.54 0.52 0.49 0.48 0.52 0.60 0.60 0.59 0.56 0.49 0.44 0.43 0.41 0.38 0.36 0.36 0.34 0.31